Northolt, United Kingdom

8:07 AM BST on September 20, 2017 (GMT +0100)
Northolt Air Base

Weather History for EGWU - April, 2014

Change the Weather History Date:

Wednesday, April 9, 2014

  Actual Average Record
Temperature  
Mean Temperature 51 °F -  
Max Temperature 63 °F 58 °F 77 °F (2017)
Min Temperature 39 °F 42 °F 28 °F (2008)
Degree Days  
Heating Degree Days 14    
Growing Degree Days 1 (Base 50)    
Moisture  
Dew Point 41 °F    
Average Humidity 67    
Maximum Humidity 94    
Minimum Humidity 34    
Precipitation  
Precipitation 0.00 in - - ()
Sea Level Pressure  
Sea Level Pressure 30.28 in    
Wind  
Wind Speed 5 mph ()    
Max Wind Speed 12 mph    
Max Gust Speed -    
Visibility 8.8 miles    
Events Fog    
Averages and records for this station are not official NWS values.
T = Trace of Precipitation, MM = Missing Value Source: Averaged Metar Reports

Daily Weather History Graph

Daily Weather History Graph

Search for Another Location

Airport or City:

Trip Planner

Search our weather history database for the weather conditions in past years. The results will help you decide how hot, cold, wet, or windy it might be!

Date:

Astronomy

Apr. 09, 2014 Rise Set
Actual Time 6:19 AM BST 7:48 PM BST
Civil Twilight 5:44 AM BST 8:23 PM BST
Nautical Twilight 5:02 AM BST 9:05 PM BST
Astronomical Twilight 4:15 AM BST 9:52 PM BST
Moon 1:47 PM BST (4/9) 3:37 AM BST (4/9)
Length of Visible Light 14h 38m
Length of Day
13h 28m
Waxing Gibbous, 69% of the Moon is Illuminated
Apr 9
Waxing Gibbous
Apr 15
Full
Apr 22
Last Quarter
Apr 29
New
May 7
First Quarter

Hourly Weather History & Observations

Time (BST) Temp. Windchill Dew Point Humidity Pressure Visibility Wind Dir Wind Speed Gust Speed Precip Events Conditions
12:00 AM 44 °F - 39 °F 77% 30.29 in 17 mi West 5.8 mph - -  
12:50 AM 42.8 °F - 39.2 °F 87% 30.30 in 6.2 mi ESE 1.2 mph - N/A   Unknown
1:00 AM 42 °F - 39 °F 86% 30.31 in 14 mi ESE 1.2 mph - -  
1:50 AM 41.0 °F 37.1 °F 39.2 °F 93% 30.30 in 6.2 mi WSW 5.8 mph - N/A   Unknown
2:00 AM 41 °F - 39 °F 88% 30.31 in 15 mi WSW 5.8 mph - -  
2:50 AM 41.0 °F - 37.4 °F 87% 30.27 in 6.2 mi West 1.2 mph - N/A   Unknown
3:00 AM 40 °F - 38 °F 90% 30.30 in 12 mi West 1.2 mph - -  
3:50 AM 41.0 °F - 39.2 °F 93% 30.27 in 6.2 mi SW 2.3 mph - N/A   Unknown
4:00 AM 40 °F - 39 °F 93% 30.30 in 10 mi SW 2.3 mph - -  
4:50 AM 39.2 °F - 37.4 °F 93% 30.27 in 6.2 mi SW 2.3 mph - N/A   Unknown
5:00 AM 40 °F - 38 °F 90% 30.30 in 9 mi SW 2.3 mph - -  
5:50 AM 41.0 °F 39.0 °F 39.2 °F 93% 30.27 in 6.2 mi SW 3.5 mph - N/A   Partly Cloudy
6:00 AM 40 °F - 38 °F 92% 30.30 in 7 mi SW 3.5 mph - -   Scattered Clouds
6:50 AM 41.0 °F 37.1 °F 39.2 °F 93% 30.27 in 3.1 mi West 5.8 mph - N/A Fog Fog
7:00 AM 41 °F - 39 °F 91% 30.30 in 3 mi West 5.8 mph - - Fog Patches of Fog
7:51 AM 42.8 °F 40.1 °F 41.0 °F 93% 30.30 in 3.7 mi WSW 4.6 mph - N/A   Scattered Clouds
8:00 AM 42 °F - 41 °F 94% 30.32 in 7 mi SW 4.6 mph - -   Scattered Clouds
8:50 AM 46.4 °F 41.9 °F 42.8 °F 87% 30.30 in 5.0 mi West 9.2 mph - N/A   Haze
9:00 AM 47 °F - 43 °F 79% 30.32 in 5 mi West 9.2 mph - -   Haze
9:50 AM 51.8 °F - 44.6 °F 76% 30.30 in - West 6.9 mph - N/A   Clear
10:00 AM 53 °F - 44 °F 62% 30.32 in 6 mi West 6.9 mph - -   Clear
10:50 AM 55.4 °F - 42.8 °F 63% 30.30 in 6.2 mi WSW 6.9 mph - N/A   Scattered Clouds
11:00 AM 55 °F - 42 °F 52% 30.32 in 16 mi WSW 6.9 mph - -   Scattered Clouds
11:50 AM 57.2 °F - 41.0 °F 55% 30.30 in 6.2 mi West 8.1 mph - N/A   Scattered Clouds
12:00 PM 58 °F - 40 °F 40% 30.32 in 19 mi West 8.1 mph - -   Scattered Clouds
12:50 PM 59.0 °F - 41.0 °F 51% 30.27 in 6.2 mi WSW 9.2 mph - N/A   Partly Cloudy
1:00 PM 60 °F - 40 °F 36% 30.30 in 19 mi WSW 9.2 mph - -   Scattered Clouds
1:50 PM 59.0 °F - 41.0 °F 51% 30.27 in 6.2 mi West 10.4 mph - N/A   Scattered Clouds
2:00 PM 60 °F - 40 °F 36% 30.29 in 19 mi West 10.4 mph - -   Partly Cloudy
2:50 PM 60.8 °F - 41.0 °F 48% 30.27 in 6.2 mi West 10.4 mph - N/A   Mostly Cloudy
3:00 PM 60 °F - 40 °F 37% 30.27 in 19 mi West 10.4 mph - -   Scattered Clouds
3:50 PM 62.6 °F - 41.0 °F 45% 30.24 in 6.2 mi West 11.5 mph - N/A   Scattered Clouds
4:00 PM 62 °F - 41 °F 34% 30.26 in 19 mi West 11.5 mph - -   Scattered Clouds
4:50 PM 60.8 °F - 42.8 °F 52% 30.24 in 6.2 mi West 10.4 mph - N/A   Mostly Cloudy
5:00 PM 61 °F - 42 °F 38% 30.25 in 25 mi West 10.4 mph - -   Mostly Cloudy
5:50 PM 59.0 °F - 41.0 °F 51% 30.24 in 6.2 mi West 10.4 mph - N/A   Scattered Clouds
6:00 PM 60 °F - 42 °F 39% 30.25 in 25 mi West 10.4 mph - -   Partly Cloudy
6:50 PM 57.2 °F - 41.0 °F 55% 30.24 in 6.2 mi WSW 9.2 mph - N/A   Mostly Cloudy
7:00 PM 57 °F - 41 °F 44% 30.25 in 25 mi WSW 9.2 mph - -   Mostly Cloudy
7:50 PM 57.2 °F - 41.0 °F 55% 30.24 in 6.2 mi WSW 9.2 mph - N/A   Mostly Cloudy
8:00 PM 57 °F - 41 °F 45% 30.25 in 22 mi WSW 9.2 mph - -   Mostly Cloudy
8:50 PM 55.4 °F - 41.0 °F 58% 30.24 in 6.2 mi WNW 8.1 mph - N/A   Mostly Cloudy
9:00 PM 55 °F - 41 °F 48% 30.26 in 25 mi WNW 8.1 mph - -   Mostly Cloudy
9:50 PM 51.8 °F - 41.0 °F 67% 30.24 in 6.2 mi West 5.8 mph - N/A   Partly Cloudy
10:00 PM 52 °F - 41 °F 55% 30.27 in 22 mi West 5.8 mph - -   Scattered Clouds
10:50 PM 50.0 °F - 41.0 °F 71% 30.24 in 6.2 mi WSW 5.8 mph - N/A   Partly Cloudy
11:00 PM 51 °F - 40 °F 57% 30.27 in 22 mi WSW 5.8 mph - -   Scattered Clouds
11:50 PM 48.2 °F - 41.0 °F 76% 30.24 in 6.2 mi West 5.8 mph - N/A   Unknown